STARLINK-31131 (58673 NORAD) Tracking and Keplerian Element Data

This shows tracking and keplerian element data for the satellite.

Feedback or suggestion? Click here.




ElementValue
Catalog58673
NameSTARLINK-31131
Epoch Orbit349
Epoch Day12.91667824
Epoch Year2024
RAAN203.6044
Inclination42.9988
Eccentricity0.0005573
Argument of Perigee281.557
Mean Anonmoly151.5722
Mean Motion15.86863677
Decay Rate0.00431099
L11 58673U 23211G 24012.91667824 .00431099 00000+0 15458-2 0 9990
L22 58673 42.9988 203.6044 0005573 281.5570 151.5722 15.86863677 3494



Live tracking and technical data element details for STARLINK-31131 (NORAD 58673). STARLINK-31131 can be tracked NOW for your location showing map with azimuth and elevation plus other details from your city location.







IsCatalogInMostPopularTable: catalog: 58673, numindb: 22
Update: records affected: 1



GetName: 58673 STARLINK-31131

Hit Count: updated at: Wed, 17 Apr 2024 02:53:30 GMT